Year,Month,Day,Hour,Minute,Value (Times are PST for temperature in C)
2018,05,21,00,00,9.60
2018,05,21,00,01,9.60
2018,05,21,00,02,9.60
2018,05,21,00,03,9.60
2018,05,21,00,04,9.50
2018,05,21,00,05,9.50
2018,05,21,00,06,9.50
2018,05,21,00,07,9.50
2018,05,21,00,08,9.50
2018,05,21,00,09,9.50
2018,05,21,00,10,9.50
2018,05,21,00,11,9.50
2018,05,21,00,12,9.50
2018,05,21,00,13,9.50
2018,05,21,00,14,9.50
2018,05,21,00,15,9.50
2018,05,21,00,16,9.50
2018,05,21,00,17,9.40
2018,05,21,00,18,9.40
2018,05,21,00,19,9.40
2018,05,21,00,20,9.40
2018,05,21,00,21,9.40
2018,05,21,00,22,9.40
2018,05,21,00,23,9.40
2018,05,21,00,24,9.40
2018,05,21,00,25,9.30
2018,05,21,00,26,9.30
2018,05,21,00,27,9.30
2018,05,21,00,28,9.30
2018,05,21,00,29,9.30
2018,05,21,00,30,9.30
2018,05,21,00,31,9.30
2018,05,21,00,32,9.30
2018,05,21,00,33,9.20
2018,05,21,00,34,9.20
2018,05,21,00,35,9.20
2018,05,21,00,36,9.20
2018,05,21,00,37,9.20
2018,05,21,00,38,9.20
2018,05,21,00,39,9.20
2018,05,21,00,40,9.20
2018,05,21,00,41,9.20
2018,05,21,00,42,9.20
2018,05,21,00,43,9.20
2018,05,21,00,44,9.20
2018,05,21,00,45,9.20
2018,05,21,00,46,9.20
2018,05,21,00,47,9.20
2018,05,21,00,48,9.20
2018,05,21,00,49,9.20
2018,05,21,00,50,9.20
2018,05,21,00,51,9.20
2018,05,21,00,52,9.20
2018,05,21,00,53,9.20
2018,05,21,00,54,9.20
2018,05,21,00,55,9.20
2018,05,21,00,56,9.20
2018,05,21,00,57,9.20
2018,05,21,00,58,9.30
2018,05,21,00,59,9.30
2018,05,21,01,00,9.30
2018,05,21,01,01,9.30
2018,05,21,01,02,9.30
2018,05,21,01,03,9.30
2018,05,21,01,04,9.30
2018,05,21,01,05,9.30
2018,05,21,01,06,9.30
2018,05,21,01,07,9.30
2018,05,21,01,08,9.30
2018,05,21,01,09,9.30
2018,05,21,01,10,9.30
2018,05,21,01,11,9.30
2018,05,21,01,12,9.30
2018,05,21,01,13,9.30
2018,05,21,01,14,9.30
2018,05,21,01,15,9.30
2018,05,21,01,16,9.30
2018,05,21,01,17,9.30
2018,05,21,01,18,9.30
2018,05,21,01,19,9.20
2018,05,21,01,20,9.20
2018,05,21,01,21,9.20
2018,05,21,01,22,9.20
2018,05,21,01,23,9.20
2018,05,21,01,24,9.20
2018,05,21,01,25,9.20
2018,05,21,01,26,9.20
2018,05,21,01,27,9.20
2018,05,21,01,28,9.20
2018,05,21,01,29,9.20
2018,05,21,01,30,9.10
2018,05,21,01,31,9.10
2018,05,21,01,32,9.10
2018,05,21,01,33,9.10
2018,05,21,01,34,9.10
2018,05,21,01,35,9.10
2018,05,21,01,36,9.10
2018,05,21,01,37,9.10
2018,05,21,01,38,9.10
2018,05,21,01,39,9.10
2018,05,21,01,40,9.10
2018,05,21,01,41,9.10
2018,05,21,01,42,9.10
2018,05,21,01,43,9.00
2018,05,21,01,44,9.00
2018,05,21,01,45,9.00
2018,05,21,01,46,9.00
2018,05,21,01,47,9.00
2018,05,21,01,48,9.00
2018,05,21,01,49,9.00
2018,05,21,01,50,9.00
2018,05,21,01,51,8.90
2018,05,21,01,52,8.90
2018,05,21,01,53,8.90
2018,05,21,01,54,8.90
2018,05,21,01,55,8.90
2018,05,21,01,56,8.90
2018,05,21,01,57,8.90
2018,05,21,01,58,8.90
2018,05,21,01,59,8.90
2018,05,21,02,00,8.90
2018,05,21,02,01,8.90
2018,05,21,02,02,8.90
2018,05,21,02,03,8.90
2018,05,21,02,04,8.90
2018,05,21,02,05,8.90
2018,05,21,02,06,8.90
2018,05,21,02,07,8.90
2018,05,21,02,08,8.90
2018,05,21,02,09,8.90
2018,05,21,02,10,8.90
2018,05,21,02,11,8.90
2018,05,21,02,12,8.90
2018,05,21,02,13,8.90
2018,05,21,02,14,8.90
2018,05,21,02,15,8.90
2018,05,21,02,16,8.90
2018,05,21,02,17,8.90
2018,05,21,02,18,8.90
2018,05,21,02,19,8.80
2018,05,21,02,20,8.80
2018,05,21,02,21,8.80
2018,05,21,02,22,8.80
2018,05,21,02,23,8.80
2018,05,21,02,24,8.80
2018,05,21,02,25,8.80
2018,05,21,02,26,8.80
2018,05,21,02,27,8.80
2018,05,21,02,28,8.80
2018,05,21,02,29,8.80
2018,05,21,02,30,8.80
2018,05,21,02,31,8.80
2018,05,21,02,32,8.80
2018,05,21,02,33,8.80
2018,05,21,02,34,8.80
2018,05,21,02,35,8.80
2018,05,21,02,36,8.80
2018,05,21,02,37,8.70
2018,05,21,02,38,8.70
2018,05,21,02,39,8.70
2018,05,21,02,40,8.70
2018,05,21,02,41,8.70
2018,05,21,02,42,8.70
2018,05,21,02,43,8.70
2018,05,21,02,44,8.70
2018,05,21,02,45,8.70
2018,05,21,02,46,8.70
2018,05,21,02,47,8.70
2018,05,21,02,48,8.70
2018,05,21,02,49,8.70
2018,05,21,02,50,8.70
2018,05,21,02,51,8.70
2018,05,21,02,52,8.70
2018,05,21,02,53,8.70
2018,05,21,02,54,8.70
2018,05,21,02,55,8.70
2018,05,21,02,56,8.70
2018,05,21,02,57,8.70
2018,05,21,02,58,8.70
2018,05,21,02,59,8.70
2018,05,21,03,00,8.70
2018,05,21,03,01,8.70
2018,05,21,03,02,8.70
2018,05,21,03,03,8.70
2018,05,21,03,04,8.70
2018,05,21,03,05,8.70
2018,05,21,03,06,8.70
2018,05,21,03,07,8.70
2018,05,21,03,08,8.70
2018,05,21,03,09,8.70
2018,05,21,03,10,8.70
2018,05,21,03,11,8.70
2018,05,21,03,12,8.70
2018,05,21,03,13,8.70
2018,05,21,03,14,8.70
2018,05,21,03,15,8.70
2018,05,21,03,16,8.70
2018,05,21,03,17,8.70
2018,05,21,03,18,8.70
2018,05,21,03,19,8.70
2018,05,21,03,20,8.70
2018,05,21,03,21,8.70
2018,05,21,03,22,8.70
2018,05,21,03,23,8.70
2018,05,21,03,24,8.70
2018,05,21,03,25,8.70
2018,05,21,03,26,8.70
2018,05,21,03,27,8.70
2018,05,21,03,28,8.70
2018,05,21,03,29,8.70
2018,05,21,03,30,8.70
2018,05,21,03,31,8.70
2018,05,21,03,32,8.70
2018,05,21,03,33,8.70
2018,05,21,03,34,8.70
2018,05,21,03,35,8.70
2018,05,21,03,36,8.70
2018,05,21,03,37,8.70
2018,05,21,03,38,8.80
2018,05,21,03,39,8.80
2018,05,21,03,40,8.80
2018,05,21,03,41,8.80
2018,05,21,03,42,8.80
2018,05,21,03,43,8.80
2018,05,21,03,44,8.80
2018,05,21,03,45,8.80
2018,05,21,03,46,8.80
2018,05,21,03,47,8.90
2018,05,21,03,48,8.90
2018,05,21,03,49,8.90
2018,05,21,03,50,8.90
2018,05,21,03,51,8.90
2018,05,21,03,52,8.90
2018,05,21,03,53,8.90
2018,05,21,03,54,8.90
2018,05,21,03,55,8.90
2018,05,21,03,56,8.90
2018,05,21,03,57,8.90
2018,05,21,03,58,8.90
2018,05,21,03,59,8.90
2018,05,21,04,00,8.90
2018,05,21,04,01,8.90
2018,05,21,04,02,8.90
2018,05,21,04,03,8.90
2018,05,21,04,04,8.90
2018,05,21,04,05,9.00
2018,05,21,04,06,9.00
2018,05,21,04,07,9.00
2018,05,21,04,08,9.00
2018,05,21,04,09,9.00
2018,05,21,04,10,9.00
2018,05,21,04,11,9.00
2018,05,21,04,12,9.00
2018,05,21,04,13,9.00
2018,05,21,04,14,9.00
2018,05,21,04,15,9.00
2018,05,21,04,16,9.00
2018,05,21,04,17,9.00
2018,05,21,04,18,9.00
2018,05,21,04,19,9.00
2018,05,21,04,20,9.00
2018,05,21,04,21,9.00
2018,05,21,04,22,9.00
2018,05,21,04,23,9.00
2018,05,21,04,24,9.10
2018,05,21,04,25,9.10
2018,05,21,04,26,9.10
2018,05,21,04,27,9.10
2018,05,21,04,28,9.10
2018,05,21,04,29,9.10
2018,05,21,04,30,9.10
2018,05,21,04,31,9.10
2018,05,21,04,32,9.10
2018,05,21,04,33,9.10
2018,05,21,04,34,9.10
2018,05,21,04,35,9.20
2018,05,21,04,36,9.20
2018,05,21,04,37,9.20
2018,05,21,04,38,9.20
2018,05,21,04,39,9.20
2018,05,21,04,40,9.20
2018,05,21,04,41,9.30
2018,05,21,04,42,9.30
2018,05,21,04,43,9.30
2018,05,21,04,44,9.30
2018,05,21,04,45,9.30
2018,05,21,04,46,9.30
2018,05,21,04,47,9.30
2018,05,21,04,48,9.30
2018,05,21,04,49,9.30
2018,05,21,04,50,9.40
2018,05,21,04,51,9.40
2018,05,21,04,52,9.40
2018,05,21,04,53,9.40
2018,05,21,04,54,9.40
2018,05,21,04,55,9.40
2018,05,21,04,56,9.40
2018,05,21,04,57,9.40
2018,05,21,04,58,9.40
2018,05,21,04,59,9.50
2018,05,21,05,00,9.50
2018,05,21,05,01,9.50
2018,05,21,05,02,9.50
2018,05,21,05,03,9.60
2018,05,21,05,04,9.60
2018,05,21,05,05,9.60
2018,05,21,05,06,9.60
2018,05,21,05,07,9.60
2018,05,21,05,08,9.60
2018,05,21,05,09,9.60
2018,05,21,05,10,9.60
2018,05,21,05,11,9.60
2018,05,21,05,12,9.70
2018,05,21,05,13,9.70
2018,05,21,05,14,9.70
2018,05,21,05,15,9.70
2018,05,21,05,16,9.70
2018,05,21,05,17,9.70
2018,05,21,05,18,9.70
2018,05,21,05,19,9.70
2018,05,21,05,20,9.70
2018,05,21,05,21,9.80
2018,05,21,05,22,9.80
2018,05,21,05,23,9.80
2018,05,21,05,24,9.80
2018,05,21,05,25,9.80
2018,05,21,05,26,9.80
2018,05,21,05,27,9.80
2018,05,21,05,28,9.80
2018,05,21,05,29,9.80
2018,05,21,05,30,9.80
2018,05,21,05,31,9.80
2018,05,21,05,32,9.90
2018,05,21,05,33,9.90
2018,05,21,05,34,9.90
2018,05,21,05,35,9.90
2018,05,21,05,36,9.90
2018,05,21,05,37,9.90
2018,05,21,05,38,9.90
2018,05,21,05,39,10.00
2018,05,21,05,40,10.00
2018,05,21,05,41,10.00
2018,05,21,05,42,10.00
2018,05,21,05,43,10.00
2018,05,21,05,44,10.10
2018,05,21,05,45,10.10
2018,05,21,05,46,10.10
2018,05,21,05,47,10.10
2018,05,21,05,48,10.10
2018,05,21,05,49,10.10
2018,05,21,05,50,10.10
2018,05,21,05,51,10.10
2018,05,21,05,52,10.10
2018,05,21,05,53,10.10
2018,05,21,05,54,10.10
2018,05,21,05,55,10.20
2018,05,21,05,56,10.20
2018,05,21,05,57,10.20
2018,05,21,05,58,10.20
2018,05,21,05,59,10.20
2018,05,21,06,00,10.20
2018,05,21,06,01,10.20
2018,05,21,06,02,10.20
2018,05,21,06,03,10.20
2018,05,21,06,04,10.20
2018,05,21,06,05,10.20
2018,05,21,06,06,10.30
2018,05,21,06,07,10.30
2018,05,21,06,08,10.30
2018,05,21,06,09,10.30
2018,05,21,06,10,10.30
2018,05,21,06,11,10.30
2018,05,21,06,12,10.30
2018,05,21,06,13,10.30
2018,05,21,06,14,10.30
2018,05,21,06,15,10.40
2018,05,21,06,16,10.40
2018,05,21,06,17,10.40
2018,05,21,06,18,10.40
2018,05,21,06,19,10.40
2018,05,21,06,20,10.40
2018,05,21,06,21,10.40
2018,05,21,06,22,10.40
2018,05,21,06,23,10.50
2018,05,21,06,24,10.50
2018,05,21,06,25,10.50
2018,05,21,06,26,10.60
2018,05,21,06,27,10.60
2018,05,21,06,28,10.60
2018,05,21,06,29,10.60
2018,05,21,06,30,10.60
2018,05,21,06,31,10.60
2018,05,21,06,32,10.60
2018,05,21,06,33,10.60
2018,05,21,06,34,10.70
2018,05,21,06,35,10.70
2018,05,21,06,36,10.70
2018,05,21,06,37,10.70
2018,05,21,06,38,10.70
2018,05,21,06,39,10.70
2018,05,21,06,40,10.70
2018,05,21,06,41,10.70
2018,05,21,06,42,10.70
2018,05,21,06,43,10.80
2018,05,21,06,44,10.80
2018,05,21,06,45,10.80
2018,05,21,06,46,10.80
2018,05,21,06,47,10.80
2018,05,21,06,48,10.90
2018,05,21,06,49,10.90
2018,05,21,06,50,10.90
2018,05,21,06,51,10.90
2018,05,21,06,52,10.90
2018,05,21,06,53,10.90
2018,05,21,06,54,11.00
2018,05,21,06,55,11.00
2018,05,21,06,56,11.00
2018,05,21,06,57,11.10
2018,05,21,06,58,11.10
2018,05,21,06,59,11.10
2018,05,21,07,00,11.10
2018,05,21,07,01,11.10
2018,05,21,07,02,11.20
2018,05,21,07,03,11.20
2018,05,21,07,04,11.20
2018,05,21,07,05,11.20
2018,05,21,07,06,11.20
2018,05,21,07,07,11.20
2018,05,21,07,08,11.30
2018,05,21,07,09,11.30
2018,05,21,07,10,11.30
2018,05,21,07,11,11.30
2018,05,21,07,12,11.30
2018,05,21,07,13,11.40
2018,05,21,07,14,11.40
2018,05,21,07,15,11.40
2018,05,21,07,16,11.40
2018,05,21,07,17,11.40
2018,05,21,07,18,11.40
2018,05,21,07,19,11.50
2018,05,21,07,20,11.50
2018,05,21,07,21,11.50
2018,05,21,07,22,11.60
2018,05,21,07,23,11.60
2018,05,21,07,24,11.60
2018,05,21,07,25,11.60
2018,05,21,07,26,11.60
2018,05,21,07,27,11.60
2018,05,21,07,28,11.70
2018,05,21,07,29,11.70
2018,05,21,07,30,11.70
2018,05,21,07,31,11.70
2018,05,21,07,32,11.70
2018,05,21,07,33,11.70
2018,05,21,07,34,11.80
2018,05,21,07,35,11.80
2018,05,21,07,36,11.80
2018,05,21,07,37,11.80
2018,05,21,07,38,11.80
2018,05,21,07,39,11.80
2018,05,21,07,40,11.90
2018,05,21,07,41,11.90
2018,05,21,07,42,11.90
2018,05,21,07,43,11.90
2018,05,21,07,44,11.90
2018,05,21,07,45,11.90
2018,05,21,07,46,12.00
2018,05,21,07,47,12.00
2018,05,21,07,48,12.00
2018,05,21,07,49,12.00
2018,05,21,07,50,12.10
2018,05,21,07,51,12.10
2018,05,21,07,52,12.10
2018,05,21,07,53,12.10
2018,05,21,07,54,12.10
2018,05,21,07,55,12.20
2018,05,21,07,56,12.20
2018,05,21,07,57,12.20
2018,05,21,07,58,12.20
2018,05,21,07,59,12.20
2018,05,21,08,00,12.30
2018,05,21,08,01,12.30
2018,05,21,08,02,12.30
2018,05,21,08,03,12.30
2018,05,21,08,04,12.40
2018,05,21,08,05,12.40
2018,05,21,08,06,12.40
2018,05,21,08,07,12.40
2018,05,21,08,08,12.40
2018,05,21,08,09,12.40
2018,05,21,08,10,12.50
2018,05,21,08,11,12.50
2018,05,21,08,12,12.50
2018,05,21,08,13,12.60
2018,05,21,08,14,12.60
2018,05,21,08,15,12.60
2018,05,21,08,16,12.60
2018,05,21,08,17,12.60
2018,05,21,08,18,12.60
2018,05,21,08,19,12.60
2018,05,21,08,20,12.70
2018,05,21,08,21,12.70
2018,05,21,08,22,12.70
2018,05,21,08,23,12.70
2018,05,21,08,24,12.70
2018,05,21,08,25,12.70
2018,05,21,08,26,12.70
2018,05,21,08,27,12.80
2018,05,21,08,28,12.80
2018,05,21,08,29,12.80
2018,05,21,08,30,12.80
2018,05,21,08,31,12.80
2018,05,21,08,32,12.80
2018,05,21,08,33,12.90
2018,05,21,08,34,12.90
2018,05,21,08,35,12.90
2018,05,21,08,36,12.90
2018,05,21,08,37,12.90
2018,05,21,08,38,12.90
2018,05,21,08,39,13.00
2018,05,21,08,40,13.00
2018,05,21,08,41,13.00
2018,05,21,08,42,13.00
2018,05,21,08,43,13.00
2018,05,21,08,44,13.10
2018,05,21,08,45,13.10
2018,05,21,08,46,13.10
2018,05,21,08,47,13.10
2018,05,21,08,48,13.20
2018,05,21,08,49,13.20
2018,05,21,08,50,13.20
2018,05,21,08,51,13.20
2018,05,21,08,52,13.20
2018,05,21,08,53,13.30
2018,05,21,08,54,13.30
2018,05,21,08,55,13.30
2018,05,21,08,56,13.30
2018,05,21,08,57,13.30
2018,05,21,08,58,13.40
2018,05,21,08,59,13.40
2018,05,21,09,00,13.40
2018,05,21,09,01,13.40
2018,05,21,09,02,13.50
2018,05,21,09,03,13.50
2018,05,21,09,04,13.50
2018,05,21,09,05,13.50
2018,05,21,09,06,13.50
2018,05,21,09,07,13.60
2018,05,21,09,08,13.60
2018,05,21,09,09,13.60
2018,05,21,09,10,13.60
2018,05,21,09,11,13.60
2018,05,21,09,12,13.60
2018,05,21,09,13,13.60
2018,05,21,09,14,13.50
2018,05,21,09,15,13.50
2018,05,21,09,16,13.50
2018,05,21,09,17,13.50
2018,05,21,09,18,13.50
2018,05,21,09,19,13.40
2018,05,21,09,20,13.40
2018,05,21,09,21,13.40
2018,05,21,09,22,13.40
2018,05,21,09,23,13.40
2018,05,21,09,24,13.50
2018,05,21,09,25,13.50
2018,05,21,09,26,13.50
2018,05,21,09,27,13.60
2018,05,21,09,28,13.60
2018,05,21,09,29,13.60
2018,05,21,09,30,13.60
2018,05,21,09,31,13.60
2018,05,21,09,32,13.60
2018,05,21,09,33,13.70
2018,05,21,09,34,13.70
2018,05,21,09,35,13.70
2018,05,21,09,36,13.70
2018,05,21,09,37,13.70
2018,05,21,09,38,13.70
2018,05,21,09,39,13.70
2018,05,21,09,40,13.70
2018,05,21,09,41,13.70
2018,05,21,09,42,13.80
2018,05,21,09,43,13.80
2018,05,21,09,44,13.80
2018,05,21,09,45,13.80
2018,05,21,09,46,13.90
2018,05,21,09,47,13.90
2018,05,21,09,48,13.90
2018,05,21,09,49,13.90
2018,05,21,09,50,13.90
2018,05,21,09,51,13.90
2018,05,21,09,52,13.90
2018,05,21,09,53,13.90
2018,05,21,09,54,14.00
2018,05,21,09,55,14.00
2018,05,21,09,56,14.00
2018,05,21,09,57,14.10
2018,05,21,09,58,14.10
2018,05,21,09,59,14.10
2018,05,21,10,00,14.20
2018,05,21,10,01,14.20
2018,05,21,10,02,14.20
2018,05,21,10,03,14.20
2018,05,21,10,04,14.20
2018,05,21,10,05,14.20
2018,05,21,10,06,14.20
2018,05,21,10,07,14.30
2018,05,21,10,08,14.30
2018,05,21,10,09,14.30
2018,05,21,10,10,14.30
2018,05,21,10,11,14.40
2018,05,21,10,12,14.40
2018,05,21,10,13,14.40
2018,05,21,10,14,14.50
2018,05,21,10,15,14.50
2018,05,21,10,16,14.60
2018,05,21,10,17,14.60
2018,05,21,10,18,14.70
2018,05,21,10,19,14.70
2018,05,21,10,20,14.70
2018,05,21,10,21,14.70
2018,05,21,10,22,14.80
2018,05,21,10,23,14.80
2018,05,21,10,24,14.80
2018,05,21,10,25,14.80
2018,05,21,10,26,14.80
2018,05,21,10,27,14.80
2018,05,21,10,28,14.80
2018,05,21,10,29,14.80
2018,05,21,10,30,14.80
2018,05,21,10,31,14.90
2018,05,21,10,32,14.90
2018,05,21,10,33,14.90
2018,05,21,10,34,15.00
2018,05,21,10,35,15.00
2018,05,21,10,36,15.10
2018,05,21,10,37,15.10
2018,05,21,10,38,15.20
2018,05,21,10,39,15.20
2018,05,21,10,40,15.20
2018,05,21,10,41,15.30
2018,05,21,10,42,15.30
2018,05,21,10,43,15.30
2018,05,21,10,44,15.30
2018,05,21,10,45,15.30
2018,05,21,10,46,15.30
2018,05,21,10,47,15.30
2018,05,21,10,48,15.30
2018,05,21,10,49,15.30
2018,05,21,10,50,15.30
2018,05,21,10,51,15.30
2018,05,21,10,52,15.30
2018,05,21,10,53,15.40
2018,05,21,10,54,15.40
2018,05,21,10,55,15.40
2018,05,21,10,56,15.40
2018,05,21,10,57,15.50
2018,05,21,10,58,15.50
2018,05,21,10,59,15.60
2018,05,21,11,00,15.60
2018,05,21,11,01,15.60
2018,05,21,11,02,15.60
2018,05,21,11,03,15.70
2018,05,21,11,04,15.70
2018,05,21,11,05,15.70
2018,05,21,11,06,15.80
2018,05,21,11,07,15.80
2018,05,21,11,08,15.80
2018,05,21,11,09,15.80
2018,05,21,11,10,15.80
2018,05,21,11,11,15.90
2018,05,21,11,12,15.90
2018,05,21,11,13,15.90
2018,05,21,11,14,15.90
2018,05,21,11,15,16.00
2018,05,21,11,16,16.00
2018,05,21,11,17,15.90
2018,05,21,11,18,16.00
2018,05,21,11,19,16.00
2018,05,21,11,20,16.00
2018,05,21,11,21,16.10
2018,05,21,11,22,16.20
2018,05,21,11,23,16.30
2018,05,21,11,24,16.30
2018,05,21,11,25,16.30
2018,05,21,11,26,16.30
2018,05,21,11,27,16.30
2018,05,21,11,28,16.30
2018,05,21,11,29,16.20
2018,05,21,11,30,16.20
2018,05,21,11,31,16.20
2018,05,21,11,32,16.20
2018,05,21,11,33,16.30
2018,05,21,11,34,16.30
2018,05,21,11,35,16.40
2018,05,21,11,36,16.40
2018,05,21,11,37,16.50
2018,05,21,11,38,16.60
2018,05,21,11,39,16.60
2018,05,21,11,40,16.60
2018,05,21,11,41,16.60
2018,05,21,11,42,16.60
2018,05,21,11,43,16.60
2018,05,21,11,44,16.50
2018,05,21,11,45,16.50
2018,05,21,11,46,16.50
2018,05,21,11,47,16.50
2018,05,21,11,48,16.50
2018,05,21,11,49,16.50
2018,05,21,11,50,16.50
2018,05,21,11,51,16.50
2018,05,21,11,52,16.50
2018,05,21,11,53,16.40
2018,05,21,11,54,16.40
2018,05,21,11,55,16.40
2018,05,21,11,56,16.50
2018,05,21,11,57,16.40
2018,05,21,11,58,16.40
2018,05,21,11,59,16.40
2018,05,21,12,00,16.50
2018,05,21,12,01,16.50
2018,05,21,12,02,16.60
2018,05,21,12,03,16.60
2018,05,21,12,04,16.70
2018,05,21,12,05,16.70
2018,05,21,12,06,16.70
2018,05,21,12,07,16.80
2018,05,21,12,08,16.80
2018,05,21,12,09,16.80
2018,05,21,12,10,16.80
2018,05,21,12,11,16.80
2018,05,21,12,12,16.90
2018,05,21,12,13,16.90
2018,05,21,12,14,16.90
2018,05,21,12,15,16.80
2018,05,21,12,16,16.80
2018,05,21,12,17,16.90
2018,05,21,12,18,16.90
2018,05,21,12,19,16.90
2018,05,21,12,20,17.00
2018,05,21,12,21,17.00
2018,05,21,12,22,17.10
2018,05,21,12,23,17.10
2018,05,21,12,24,17.20
2018,05,21,12,25,17.20
2018,05,21,12,26,17.20
2018,05,21,12,27,17.20
2018,05,21,12,28,17.10
2018,05,21,12,29,17.10
2018,05,21,12,30,17.00
2018,05,21,12,31,16.90
2018,05,21,12,32,16.90
2018,05,21,12,33,16.90
2018,05,21,12,34,16.90
2018,05,21,12,35,16.80
2018,05,21,12,36,16.90
2018,05,21,12,37,16.90
2018,05,21,12,38,16.90
2018,05,21,12,39,16.90
2018,05,21,12,40,16.90
2018,05,21,12,41,17.00
2018,05,21,12,42,17.00
2018,05,21,12,43,17.00
2018,05,21,12,44,17.00
2018,05,21,12,45,17.00
2018,05,21,12,46,17.00
2018,05,21,12,47,17.10
2018,05,21,12,48,17.10
2018,05,21,12,49,17.10
2018,05,21,12,50,17.10
2018,05,21,12,51,17.20
2018,05,21,12,52,17.20
2018,05,21,12,53,17.20
2018,05,21,12,54,17.20
2018,05,21,12,55,17.20
2018,05,21,12,56,17.20
2018,05,21,12,57,17.20
2018,05,21,12,58,17.20
2018,05,21,12,59,17.20
2018,05,21,13,00,17.20
2018,05,21,13,01,17.10
2018,05,21,13,02,17.00
2018,05,21,13,03,17.00
2018,05,21,13,04,16.90
2018,05,21,13,05,16.90
2018,05,21,13,06,16.90
2018,05,21,13,07,16.90
2018,05,21,13,08,16.90
2018,05,21,13,09,16.90
2018,05,21,13,10,16.90
2018,05,21,13,11,16.90
2018,05,21,13,12,16.90
2018,05,21,13,13,16.90
2018,05,21,13,14,17.00
2018,05,21,13,15,17.00
2018,05,21,13,16,17.00
2018,05,21,13,17,17.10
2018,05,21,13,18,17.10
2018,05,21,13,19,17.10
2018,05,21,13,20,17.10
2018,05,21,13,21,17.10
2018,05,21,13,22,17.10
2018,05,21,13,23,17.10
2018,05,21,13,24,17.20
2018,05,21,13,25,17.20
2018,05,21,13,26,17.20
2018,05,21,13,27,17.20
2018,05,21,13,28,17.20
2018,05,21,13,29,17.20
2018,05,21,13,30,17.20
2018,05,21,13,31,17.10
2018,05,21,13,32,17.10
2018,05,21,13,33,17.10
2018,05,21,13,34,17.10
2018,05,21,13,35,17.10
2018,05,21,13,36,17.10
2018,05,21,13,37,17.10
2018,05,21,13,38,17.10
2018,05,21,13,39,17.10
2018,05,21,13,40,17.00
2018,05,21,13,41,17.00
2018,05,21,13,42,17.00
2018,05,21,13,43,17.00
2018,05,21,13,44,16.90
2018,05,21,13,45,16.90
2018,05,21,13,46,16.90
2018,05,21,13,47,16.80
2018,05,21,13,48,16.80
2018,05,21,13,49,16.70
2018,05,21,13,50,16.70
2018,05,21,13,51,16.70
2018,05,21,13,52,16.70
2018,05,21,13,53,16.70
2018,05,21,13,54,16.70
2018,05,21,13,55,16.70
2018,05,21,13,56,16.70
2018,05,21,13,57,16.70
2018,05,21,13,58,16.70
2018,05,21,13,59,16.70
2018,05,21,14,00,16.70
2018,05,21,14,01,16.70
2018,05,21,14,02,16.70
2018,05,21,14,03,16.70
2018,05,21,14,04,16.80
2018,05,21,14,05,16.80
2018,05,21,14,06,16.80
2018,05,21,14,07,16.80
2018,05,21,14,08,16.80
2018,05,21,14,09,16.70
2018,05,21,14,10,16.80
2018,05,21,14,11,16.80
2018,05,21,14,12,16.80
2018,05,21,14,13,16.90
2018,05,21,14,14,16.90
2018,05,21,14,15,17.00
2018,05,21,14,16,17.10
2018,05,21,14,17,17.10
2018,05,21,14,18,17.20
2018,05,21,14,19,17.20
2018,05,21,14,20,17.20
2018,05,21,14,21,17.20
2018,05,21,14,22,17.20
2018,05,21,14,23,17.20
2018,05,21,14,24,17.20
2018,05,21,14,25,17.20
2018,05,21,14,26,17.20
2018,05,21,14,27,17.30
2018,05,21,14,28,17.30
2018,05,21,14,29,17.30
2018,05,21,14,30,17.40
2018,05,21,14,31,17.50
2018,05,21,14,32,17.60
2018,05,21,14,33,17.70
2018,05,21,14,34,17.80
2018,05,21,14,35,17.80
2018,05,21,14,36,17.90
2018,05,21,14,37,17.90
2018,05,21,14,38,17.90
2018,05,21,14,39,17.90
2018,05,21,14,40,17.90
2018,05,21,14,41,17.90
2018,05,21,14,42,17.90
2018,05,21,14,43,17.90
2018,05,21,14,44,18.00
2018,05,21,14,45,18.00
2018,05,21,14,46,18.10
2018,05,21,14,47,18.20
2018,05,21,14,48,18.30
2018,05,21,14,49,18.40
2018,05,21,14,50,18.60
2018,05,21,14,51,18.70
2018,05,21,14,52,18.90
2018,05,21,14,53,19.10
2018,05,21,14,54,19.20
2018,05,21,14,55,19.40
2018,05,21,14,56,19.50
2018,05,21,14,57,19.60
2018,05,21,14,58,19.70
2018,05,21,14,59,19.70
2018,05,21,15,00,19.60
2018,05,21,15,01,19.50
2018,05,21,15,02,19.40
2018,05,21,15,03,19.40
2018,05,21,15,04,19.30
2018,05,21,15,05,19.30
2018,05,21,15,06,19.40
2018,05,21,15,07,19.50
2018,05,21,15,08,19.60
2018,05,21,15,09,19.70
2018,05,21,15,10,19.80
2018,05,21,15,11,19.90
2018,05,21,15,12,19.90
2018,05,21,15,13,20.00
2018,05,21,15,14,20.10
2018,05,21,15,15,20.20
2018,05,21,15,16,20.30
2018,05,21,15,17,20.30
2018,05,21,15,18,20.30
2018,05,21,15,19,20.30
2018,05,21,15,20,20.30
2018,05,21,15,21,20.30
2018,05,21,15,22,20.30
2018,05,21,15,23,20.30
2018,05,21,15,24,20.30
2018,05,21,15,25,20.30
2018,05,21,15,26,20.30
2018,05,21,15,27,20.30
2018,05,21,15,28,20.30
2018,05,21,15,29,20.20
2018,05,21,15,30,20.20
2018,05,21,15,31,20.30
2018,05,21,15,32,20.30
2018,05,21,15,33,20.40
2018,05,21,15,34,20.50
2018,05,21,15,35,20.40
2018,05,21,15,36,20.30
2018,05,21,15,37,20.20
2018,05,21,15,38,20.10
2018,05,21,15,39,20.10
2018,05,21,15,40,20.20
2018,05,21,15,41,20.20
2018,05,21,15,42,20.20
2018,05,21,15,43,20.20
2018,05,21,15,44,20.20
2018,05,21,15,45,20.20
2018,05,21,15,46,20.20
2018,05,21,15,47,20.10
2018,05,21,15,48,20.10
2018,05,21,15,49,20.00
2018,05,21,15,50,20.00
2018,05,21,15,51,19.90
2018,05,21,15,52,19.90
2018,05,21,15,53,19.90
2018,05,21,15,54,20.00
2018,05,21,15,55,20.00
2018,05,21,15,56,19.90
2018,05,21,15,57,19.90
2018,05,21,15,58,19.80
2018,05,21,15,59,19.80
2018,05,21,16,00,19.80
2018,05,21,16,01,19.80
2018,05,21,16,02,19.90
2018,05,21,16,03,19.80
2018,05,21,16,04,19.80
2018,05,21,16,05,19.80
2018,05,21,16,06,19.90
2018,05,21,16,07,19.90
2018,05,21,16,08,20.00
2018,05,21,16,09,20.00
2018,05,21,16,10,20.10
2018,05,21,16,11,20.20
2018,05,21,16,12,20.20
2018,05,21,16,13,20.20
2018,05,21,16,14,20.20
2018,05,21,16,15,20.20
2018,05,21,16,16,20.10
2018,05,21,16,17,20.10
2018,05,21,16,18,20.00
2018,05,21,16,19,19.90
2018,05,21,16,20,19.90
2018,05,21,16,21,19.90
2018,05,21,16,22,19.90
2018,05,21,16,23,19.90
2018,05,21,16,24,19.90
2018,05,21,16,25,19.80
2018,05,21,16,26,19.90
2018,05,21,16,27,19.90
2018,05,21,16,28,19.90
2018,05,21,16,29,19.90
2018,05,21,16,30,19.90
2018,05,21,16,31,19.90
2018,05,21,16,32,19.80
2018,05,21,16,33,19.80
2018,05,21,16,34,19.80
2018,05,21,16,35,19.80
2018,05,21,16,36,19.80
2018,05,21,16,37,19.80
2018,05,21,16,38,19.80
2018,05,21,16,39,19.80
2018,05,21,16,40,19.80
2018,05,21,16,41,19.80
2018,05,21,16,42,19.80
2018,05,21,16,43,19.80
2018,05,21,16,44,19.90
2018,05,21,16,45,19.90
2018,05,21,16,46,19.90
2018,05,21,16,47,19.90
2018,05,21,16,48,19.80
2018,05,21,16,49,19.80
2018,05,21,16,50,19.80
2018,05,21,16,51,19.80
2018,05,21,16,52,19.80
2018,05,21,16,53,19.80
2018,05,21,16,54,19.60
2018,05,21,16,55,19.50
2018,05,21,16,56,19.50
2018,05,21,16,57,19.40
2018,05,21,16,58,19.40
2018,05,21,16,59,19.30
2018,05,21,17,00,19.20
2018,05,21,17,01,19.20
2018,05,21,17,02,19.20
2018,05,21,17,03,19.20
2018,05,21,17,04,19.20
2018,05,21,17,05,19.30
2018,05,21,17,06,19.30
2018,05,21,17,07,19.30
2018,05,21,17,08,19.30
2018,05,21,17,09,19.30
2018,05,21,17,10,19.30
2018,05,21,17,11,19.30
2018,05,21,17,12,19.20
2018,05,21,17,13,19.20
2018,05,21,17,14,19.10
2018,05,21,17,15,19.10
2018,05,21,17,16,19.10
2018,05,21,17,17,19.10
2018,05,21,17,18,19.10
2018,05,21,17,19,19.20
2018,05,21,17,20,19.10
2018,05,21,17,21,19.10
2018,05,21,17,22,19.10
2018,05,21,17,23,19.10
2018,05,21,17,24,19.10
2018,05,21,17,25,19.20
2018,05,21,17,26,19.20
2018,05,21,17,27,19.20
2018,05,21,17,28,19.30
2018,05,21,17,29,19.30
2018,05,21,17,30,19.30
2018,05,21,17,31,19.30
2018,05,21,17,32,19.30
2018,05,21,17,33,19.30
2018,05,21,17,34,19.30